| time (UTC) | temp C | wind direction | speed KPH | gust KPH | rain 1hr cm | rain 24hr cm | rain mn cm | humidity % | barometer mb |
| 20260508023702 | 8 | 314 | 0.0 | 3.2 | 0.00 | 0.00 | 0.00 | 58 | 1009.9 |
| 20260508023153 | 9 | 314 | 0.0 | 3.2 | 0.00 | 0.00 | 0.00 | 58 | 1009.9 |
| 20260508022648 | 9 | 314 | 0.0 | 1.6 | 0.00 | 0.00 | 0.00 | 56 | 1009.8 |
| 20260508022145 | 9 | 314 | 0.0 | 3.2 | 0.00 | 0.00 | 0.00 | 55 | 1009.8 |
| 20260508021630 | 10 | 314 | 0.0 | 3.2 | 0.00 | 0.00 | 0.00 | 55 | 1009.8 |
| 20260508021130 | 10 | 314 | 0.0 | 1.6 | 0.00 | 0.00 | 0.00 | 54 | 1009.8 |
| 20260508020621 | 10 | 314 | 0.0 | 1.6 | 0.00 | 0.00 | 0.00 | 53 | 1009.8 |
| 20260508020112 | 10 | 314 | 0.0 | 0.0 | 0.00 | 0.00 | 0.00 | 53 | 1009.9 |
| 20260508015609 | 10 | 314 | 0.0 | 0.0 | 0.00 | 0.00 | 0.00 | 52 | 1009.6 |
| 20260508015052 | 10 | 314 | 0.0 | 1.6 | 0.00 | 0.00 | 0.00 | 52 | 1009.6 |
| 20260508014547 | 10 | 314 | 0.0 | 1.6 | 0.00 | 0.00 | 0.00 | 50 | 1009.6 |
| 20260508014032 | 11 | 314 | 0.0 | 3.2 | 0.00 | 0.00 | 0.00 | 49 | 1009.6 |
| 20260508013512 | 11 | 314 | 0.0 | 6.4 | 0.00 | 0.00 | 0.00 | 49 | 1009.6 |
| 20260508013013 | 11 | 314 | 0.0 | 6.4 | 0.00 | 0.00 | 0.00 | 49 | 1009.6 |
| 20260508012511 | 11 | 314 | 1.6 | 4.8 | 0.00 | 0.00 | 0.00 | 48 | 1009.4 |
| 20260508011503 | 11 | 314 | 1.6 | 6.4 | 0.00 | 0.00 | 0.00 | 48 | 1009.4 |
| 20260508010946 | 11 | 314 | 3.2 | 11.3 | 0.00 | 0.00 | 0.00 | 47 | 1009.4 |
| 20260508005917 | 11 | 314 | 6.4 | 20.9 | 0.00 | 0.00 | 0.00 | 46 | 1009.1 |
| 20260508004911 | 12 | 316 | 6.4 | 20.9 | 0.00 | 0.00 | 0.00 | 47 | 1009.1 |
| 20260508004412 | 12 | 314 | 6.4 | 17.7 | 0.00 | 0.00 | 0.00 | 46 | 1008.9 |
| 20260508003910 | 12 | 314 | 6.4 | 17.7 | 0.00 | 0.00 | 0.00 | 46 | 1008.9 |
| 20260508003410 | 12 | 314 | 8.0 | 22.5 | 0.00 | 0.00 | 0.00 | 45 | 1008.9 |
| 20260508002910 | 12 | 314 | 8.0 | 22.5 | 0.00 | 0.00 | 0.00 | 45 | 1008.6 |
| 20260508002359 | 12 | 313 | 8.0 | 19.3 | 0.00 | 0.00 | 0.00 | 44 | 1008.6 |
| 20260508001842 | 12 | 313 | 8.0 | 22.5 | 0.00 | 0.00 | 0.00 | 44 | 1008.7 |
| 20260508001326 | 13 | 312 | 8.0 | 22.5 | 0.00 | 0.00 | 0.00 | 43 | 1008.6 |
| 20260508000814 | 13 | 312 | 9.7 | 22.5 | 0.00 | 0.00 | 0.00 | 43 | 1008.6 |
| 20260508000309 | 13 | 306 | 8.0 | 20.9 | 0.00 | 0.00 | 0.00 | 42 | 1008.6 |
| 20260507235810 | 13 | 289 | 6.4 | 20.9 | 0.00 | 0.00 | 0.00 | 41 | 1008.4 |
| 20260507235309 | 13 | 272 | 9.7 | 24.1 | 0.00 | 0.00 | 0.00 | 40 | 1008.4 |
| 20260507234808 | 13 | 271 | 11.3 | 24.1 | 0.00 | 0.00 | 0.00 | 39 | 1008.4 |
| 20260507234311 | 13 | 315 | 11.3 | 20.9 | 0.00 | 0.00 | 0.00 | 40 | 1008.4 |
| 20260507233809 | 14 | 279 | 8.0 | 19.3 | 0.00 | 0.00 | 0.00 | 40 | 1008.4 |
| 20260507233312 | 14 | 275 | 8.0 | 19.3 | 0.00 | 0.00 | 0.00 | 39 | 1008.5 |
| 20260507232811 | 14 | 281 | 8.0 | 22.5 | 0.00 | 0.00 | 0.00 | 38 | 1008.3 |
| 20260507232306 | 14 | 266 | 9.7 | 22.5 | 0.00 | 0.00 | 0.00 | 39 | 1008.3 |
| 20260507231756 | 14 | 272 | 8.0 | 19.3 | 0.00 | 0.00 | 0.00 | 39 | 1008.3 |
| 20260507231250 | 14 | 282 | 6.4 | 17.7 | 0.00 | 0.00 | 0.00 | 39 | 1008.1 |
| 20260507230750 | 14 | 302 | 6.4 | 17.7 | 0.00 | 0.00 | 0.00 | 39 | 1008.1 |
| 20260507230250 | 14 | 308 | 6.4 | 16.1 | 0.00 | 0.00 | 0.00 | 38 | 1008.1 |
| 20260507225748 | 15 | 316 | 9.7 | 24.1 | 0.00 | 0.00 | 0.00 | 38 | 1008.1 |
| 20260507225246 | 15 | 316 | 11.3 | 35.4 | 0.00 | 0.00 | 0.00 | 36 | 1008.1 |
| 20260507224244 | 15 | 319 | 9.7 | 27.4 | 0.00 | 0.00 | 0.00 | 37 | 1008.0 |
| 20260507223738 | 15 | 234 | 8.0 | 20.9 | 0.00 | 0.00 | 0.00 | 35 | 1008.0 |
| 20260507222736 | 15 | 278 | 9.7 | 22.5 | 0.00 | 0.00 | 0.00 | 37 | 1007.9 |
| 20260507222236 | 15 | 252 | 11.3 | 27.4 | 0.00 | 0.00 | 0.00 | 36 | 1007.9 |
| 20260507221736 | 15 | 326 | 9.7 | 27.4 | 0.00 | 0.00 | 0.00 | 37 | 1007.9 |
| 20260507221234 | 15 | 251 | 6.4 | 17.7 | 0.00 | 0.00 | 0.00 | 35 | 1007.6 |
| 20260507220734 | 15 | 274 | 6.4 | 16.1 | 0.00 | 0.00 | 0.00 | 38 | 1007.6 |
| 20260507220229 | 15 | 273 | 8.0 | 24.1 | 0.00 | 0.00 | 0.00 | 34 | 1007.6 |
| 20260507215723 | 15 | 276 | 9.7 | 29.0 | 0.00 | 0.00 | 0.00 | 36 | 1007.7 |
| 20260507215217 | 16 | 233 | 8.0 | 29.0 | 0.00 | 0.00 | 0.00 | 32 | 1007.7 |
| 20260507214712 | 16 | 325 | 8.0 | 22.5 | 0.00 | 0.00 | 0.00 | 33 | 1007.7 |
| 20260507214201 | 16 | 261 | 8.0 | 17.7 | 0.00 | 0.00 | 0.00 | 31 | 1007.5 |
| 20260507213648 | 16 | 254 | 6.4 | 17.7 | 0.00 | 0.00 | 0.00 | 33 | 1007.6 |
| 20260507212635 | 16 | 319 | 9.7 | 29.0 | 0.00 | 0.00 | 0.00 | 36 | 1007.6 |
| 20260507212130 | 15 | 223 | 8.0 | 20.9 | 0.00 | 0.00 | 0.00 | 36 | 1007.6 |
| 20260507211623 | 15 | 217 | 12.9 | 33.8 | 0.00 | 0.00 | 0.00 | 37 | 1007.6 |
| 20260507211118 | 15 | 320 | 12.9 | 33.8 | 0.00 | 0.00 | 0.00 | 34 | 1007.2 |
| 20260507210612 | 15 | 267 | 9.7 | 25.7 | 0.00 | 0.00 | 0.00 | 34 | 1007.2 |
| 20260507205600 | 15 | 241 | 8.0 | 19.3 | 0.00 | 0.00 | 0.00 | 34 | 1007.1 |
| 20260507205054 | 15 | 263 | 9.7 | 20.9 | 0.00 | 0.00 | 0.00 | 34 | 1007.1 |
| 20260507204547 | 15 | 238 | 9.7 | 20.9 | 0.00 | 0.00 | 0.00 | 35 | 1007.1 |
| 20260507204041 | 15 | 258 | 8.0 | 17.7 | 0.00 | 0.00 | 0.00 | 33 | 1007.1 |
| 20260507202522 | 15 | 321 | 11.3 | 25.7 | 0.00 | 0.00 | 0.00 | 37 | 1007.5 |
| 20260507202017 | 16 | 319 | 11.3 | 25.7 | 0.00 | 0.00 | 0.00 | 34 | 1007.5 |
| 20260507201004 | 16 | 329 | 12.9 | 30.6 | 0.00 | 0.00 | 0.00 | 35 | 1007.5 |
| 20260507200501 | 16 | 224 | 12.9 | 29.0 | 0.00 | 0.00 | 0.00 | 34 | 1007.4 |
| 20260507195952 | 16 | 239 | 12.9 | 29.0 | 0.00 | 0.00 | 0.00 | 35 | 1007.5 |
| 20260507195446 | 15 | 298 | 14.5 | 29.0 | 0.00 | 0.00 | 0.00 | 38 | 1007.5 |
| 20260507194941 | 15 | 320 | 11.3 | 27.4 | 0.00 | 0.00 | 0.00 | 39 | 1007.4 |
| 20260507194430 | 15 | 328 | 6.4 | 25.7 | 0.00 | 0.00 | 0.00 | 41 | 1007.8 |
| 20260507193921 | 15 | 241 | 6.4 | 20.9 | 0.00 | 0.00 | 0.00 | 39 | 1007.8 |
| 20260507193414 | 15 | 226 | 9.7 | 20.9 | 0.00 | 0.00 | 0.00 | 41 | 1007.8 |
| 20260507192908 | 15 | 245 | 9.7 | 24.1 | 0.00 | 0.00 | 0.00 | 37 | 1007.6 |
| 20260507191855 | 16 | 250 | 6.4 | 22.5 | 0.00 | 0.00 | 0.00 | 40 | 1007.6 |
| 20260507191349 | 16 | 283 | 9.7 | 22.5 | 0.00 | 0.00 | 0.00 | 42 | 1007.6 |
| 20260507190843 | 16 | 258 | 11.3 | 40.2 | 0.00 | 0.00 | 0.00 | 37 | 1007.6 |
| 20260507190336 | 15 | 319 | 12.9 | 40.2 | 0.00 | 0.00 | 0.00 | 43 | 1007.6 |
| 20260507185832 | 15 | 320 | 9.7 | 30.6 | 0.00 | 0.00 | 0.00 | 41 | 1007.8 |
| 20260507185321 | 15 | 208 | 9.7 | 22.5 | 0.00 | 0.00 | 0.00 | 41 | 1007.8 |
| 20260507184816 | 15 | 194 | 11.3 | 24.1 | 0.00 | 0.00 | 0.00 | 39 | 1007.8 |
| 20260507184309 | 15 | 260 | 9.7 | 24.1 | 0.00 | 0.00 | 0.00 | 44 | 1007.9 |
| 20260507183804 | 15 | 257 | 11.3 | 22.5 | 0.00 | 0.00 | 0.00 | 37 | 1007.9 |
| 20260507183258 | 16 | 295 | 11.3 | 27.4 | 0.00 | 0.00 | 0.00 | 38 | 1007.9 |
| 20260507182248 | 16 | 238 | 6.4 | 14.5 | 0.00 | 0.00 | 0.00 | 42 | 1007.9 |
| 20260507181729 | 15 | 237 | 8.0 | 17.7 | 0.00 | 0.00 | 0.00 | 44 | 1007.9 |
| 20260507181224 | 15 | 237 | 11.3 | 24.1 | 0.00 | 0.00 | 0.00 | 43 | 1007.8 |
| 20260507180719 | 15 | 223 | 11.3 | 25.7 | 0.00 | 0.00 | 0.00 | 40 | 1007.8 |
| 20260507180218 | 15 | 266 | 9.7 | 25.7 | 0.00 | 0.00 | 0.00 | 49 | 1007.8 |
| 20260507175719 | 15 | 245 | 8.0 | 17.7 | 0.00 | 0.00 | 0.00 | 48 | 1008.1 |
| 20260507174717 | 15 | 218 | 9.7 | 20.9 | 0.00 | 0.00 | 0.00 | 42 | 1008.1 |
| 20260507174219 | 15 | 219 | 11.3 | 20.9 | 0.00 | 0.00 | 0.00 | 43 | 1008.2 |
| 20260507173710 | 15 | 224 | 11.3 | 17.7 | 0.00 | 0.00 | 0.00 | 45 | 1008.2 |
| 20260507172712 | 15 | 228 | 11.3 | 22.5 | 0.00 | 0.00 | 0.00 | 47 | 1008.4 |
| 20260507172200 | 15 | 216 | 12.9 | 27.4 | 0.00 | 0.00 | 0.00 | 46 | 1008.4 |
| 20260507171648 | 15 | 211 | 11.3 | 27.4 | 0.00 | 0.00 | 0.00 | 44 | 1008.4 |
| 20260507170625 | 15 | 236 | 11.3 | 32.2 | 0.00 | 0.00 | 0.00 | 42 | 1008.6 |
| 20260507170106 | 15 | 224 | 8.0 | 32.2 | 0.00 | 0.00 | 0.00 | 46 | 1008.6 |
| 20260507165559 | 15 | 232 | 11.3 | 19.3 | 0.00 | 0.00 | 0.00 | 47 | 1008.6 |
| 20260507165049 | 15 | 221 | 11.3 | 19.3 | 0.00 | 0.00 | 0.00 | 44 | 1008.6 |
| 20260507164537 | 15 | 222 | 9.7 | 16.1 | 0.00 | 0.00 | 0.00 | 45 | 1008.6 |
| 20260507164024 | 15 | 223 | 9.7 | 22.5 | 0.00 | 0.00 | 0.00 | 43 | 1008.8 |
| 20260507163001 | 14 | 215 | 9.7 | 25.7 | 0.00 | 0.00 | 0.00 | 48 | 1008.8 |
| 20260507162449 | 14 | 217 | 9.7 | 25.7 | 0.00 | 0.00 | 0.00 | 45 | 1008.8 |
| 20260507161937 | 14 | 241 | 8.0 | 19.3 | 0.00 | 0.00 | 0.00 | 45 | 1008.8 |
| 20260507161431 | 14 | 235 | 9.7 | 19.3 | 0.00 | 0.00 | 0.00 | 45 | 1008.8 |
| 20260507160925 | 14 | 245 | 9.7 | 17.7 | 0.00 | 0.00 | 0.00 | 43 | 1008.8 |
| 20260507160415 | 14 | 242 | 9.7 | 24.1 | 0.00 | 0.00 | 0.00 | 43 | 1008.9 |
| 20260507155909 | 14 | 259 | 9.7 | 25.7 | 0.00 | 0.00 | 0.00 | 46 | 1009.1 |
| 20260507155402 | 14 | 257 | 8.0 | 19.3 | 0.00 | 0.00 | 0.00 | 46 | 1009.1 |
| 20260507154852 | 13 | 246 | 6.4 | 17.7 | 0.00 | 0.00 | 0.00 | 45 | 1009.1 |
| 20260507154342 | 13 | 244 | 4.8 | 17.7 | 0.00 | 0.00 | 0.00 | 48 | 1009.3 |
| 20260507153843 | 13 | 232 | 8.0 | 22.5 | 0.00 | 0.00 | 0.00 | 50 | 1009.3 |
| 20260507153335 | 13 | 232 | 9.7 | 22.5 | 0.00 | 0.00 | 0.00 | 46 | 1009.1 |
| 20260507152828 | 13 | 231 | 6.4 | 20.9 | 0.00 | 0.00 | 0.00 | 49 | 1009.1 |
| 20260507151819 | 13 | 238 | 4.8 | 16.1 | 0.00 | 0.00 | 0.00 | 48 | 1009.1 |
| 20260507151306 | 13 | 239 | 6.4 | 16.1 | 0.00 | 0.00 | 0.00 | 47 | 1009.6 |
| 20260507150757 | 13 | 297 | 6.4 | 14.5 | 0.00 | 0.00 | 0.00 | 51 | 1009.6 |
| 20260507150253 | 13 | 298 | 6.4 | 14.5 | 0.00 | 0.00 | 0.00 | 49 | 1009.6 |
| 20260507145741 | 13 | 311 | 6.4 | 14.5 | 0.00 | 0.00 | 0.00 | 48 | 1009.7 |
| 20260507145235 | 13 | 314 | 8.0 | 27.4 | 0.00 | 0.00 | 0.00 | 47 | 1009.7 |
| 20260507144725 | 13 | 321 | 8.0 | 27.4 | 0.00 | 0.00 | 0.00 | 50 | 1009.7 |
| 20260507144211 | 12 | 260 | 6.4 | 19.3 | 0.00 | 0.00 | 0.00 | 50 | 1009.6 |
| 20260507143705 | 12 | 250 | 6.4 | 19.3 | 0.00 | 0.00 | 0.00 | 53 | 1009.6 |
| 20260507143204 | 12 | 264 | 6.4 | 14.5 | 0.00 | 0.03 | 0.00 | 49 | 1009.6 |
| 20260507142659 | 12 | 264 | 4.8 | 14.5 | 0.00 | 0.03 | 0.00 | 52 | 1010.0 |
| 20260507142158 | 12 | 264 | 4.8 | 14.5 | 0.00 | 0.03 | 0.00 | 53 | 1010.0 |
| 20260507141648 | 12 | 268 | 6.4 | 17.7 | 0.00 | 0.03 | 0.00 | 56 | 1009.9 |
| 20260507141146 | 12 | 268 | 8.0 | 17.7 | 0.00 | 0.03 | 0.00 | 57 | 1010.2 |
| 20260507140647 | 12 | 295 | 6.4 | 14.5 | 0.00 | 0.03 | 0.00 | 60 | 1010.2 |
| 20260507140142 | 11 | 295 | 4.8 | 14.5 | 0.00 | 0.03 | 0.00 | 59 | 1010.2 |
| 20260507135640 | 11 | 300 | 6.4 | 14.5 | 0.00 | 0.03 | 0.00 | 60 | 1010.2 |
| 20260507135143 | 11 | 300 | 6.4 | 14.5 | 0.00 | 0.03 | 0.00 | 61 | 1010.2 |
| 20260507134632 | 11 | 300 | 4.8 | 14.5 | 0.00 | 0.03 | 0.00 | 64 | 1010.2 |
| 20260507134130 | 11 | 303 | 4.8 | 12.9 | 0.00 | 0.03 | 0.00 | 65 | 1010.3 |
| 20260507133621 | 10 | 305 | 6.4 | 11.3 | 0.00 | 0.03 | 0.00 | 65 | 1010.2 |
| 20260507132616 | 10 | 309 | 4.8 | 11.3 | 0.00 | 0.05 | 0.00 | 71 | 1010.4 |
| 20260507132117 | 9 | 309 | 4.8 | 11.3 | 0.00 | 0.05 | 0.00 | 73 | 1010.4 |
| 20260507131615 | 9 | 312 | 4.8 | 11.3 | 0.00 | 0.08 | 0.00 | 75 | 1010.3 |
| 20260507131115 | 8 | 313 | 4.8 | 9.7 | 0.00 | 0.08 | 0.00 | 76 | 1010.2 |
| 20260507130617 | 8 | 313 | 4.8 | 9.7 | 0.00 | 0.08 | 0.00 | 81 | 1010.1 |
| 20260507130112 | 7 | 313 | 3.2 | 9.7 | 0.00 | 0.08 | 0.00 | 85 | 1010.1 |
| 20260507125611 | 7 | 313 | 3.2 | 8.0 | 0.00 | 0.08 | 0.00 | 89 | 1010.2 |
| 20260507125104 | 7 | 313 | 3.2 | 8.0 | 0.00 | 0.08 | 0.00 | 92 | 1010.2 |
| 20260507124559 | 6 | 314 | 3.2 | 8.0 | 0.00 | 0.08 | 0.00 | 94 | 1010.1 |
| 20260507124053 | 6 | 313 | 3.2 | 8.0 | 0.00 | 0.08 | 0.00 | 96 | 1010.2 |
| 20260507123547 | 6 | 314 | 1.6 | 6.4 | 0.00 | 0.08 | 0.00 | 96 | 1010.1 |
| 20260507123037 | 6 | 314 | 1.6 | 6.4 | 0.00 | 0.08 | 0.00 | 96 | 1010.1 |
| 20260507122020 | 5 | 314 | 0.0 | 0.0 | 0.00 | 0.08 | 0.00 | 96 | 1010.1 |
| 20260507121519 | 5 | 313 | 0.0 | 0.0 | 0.00 | 0.10 | 0.00 | 96 | 1010.0 |
| 20260507120506 | 4 | 314 | 0.0 | 0.0 | 0.00 | 0.10 | 0.00 | 95 | 1010.0 |
| 20260507115956 | 3 | 313 | 0.0 | 0.0 | 0.00 | 0.13 | 0.00 | 94 | 1010.0 |
| 20260507114941 | 3 | 314 | 0.0 | 0.0 | 0.00 | 0.18 | 0.00 | 94 | 1009.9 |
| 20260507113932 | 3 | 313 | 0.0 | 0.0 | 0.00 | 0.20 | 0.00 | 93 | 1009.8 |
| 20260507113430 | 2 | 314 | 0.0 | 0.0 | 0.00 | 0.20 | 0.00 | 92 | 1009.8 |
| 20260507112926 | 2 | 313 | 0.0 | 0.0 | 0.00 | 0.20 | 0.00 | 92 | 1009.5 |
| 20260507111927 | 2 | 314 | 0.0 | 0.0 | 0.00 | 0.20 | 0.00 | 92 | 1009.5 |
| 20260507111426 | 2 | 314 | 0.0 | 0.0 | 0.00 | 0.20 | 0.00 | 91 | 1009.3 |
| 20260507110415 | 2 | 314 | 0.0 | 0.0 | 0.00 | 0.23 | 0.00 | 91 | 1009.3 |
| 20260507105909 | 2 | 313 | 0.0 | 0.0 | 0.00 | 0.23 | 0.00 | 91 | 1009.3 |
| 20260507105405 | 2 | 313 | 0.0 | 0.0 | 0.00 | 0.23 | 0.00 | 91 | 1009.3 |
| 20260507104852 | 2 | 314 | 0.0 | 0.0 | 0.00 | 0.23 | 0.00 | 91 | 1009.4 |
| 20260507103340 | 2 | 314 | 0.0 | 0.0 | 0.00 | 0.28 | 0.00 | 90 | 1009.3 |
| 20260507102832 | 2 | 314 | 0.0 | 0.0 | 0.00 | 0.30 | 0.00 | 90 | 1009.0 |
| 20260507102332 | 2 | 313 | 0.0 | 0.0 | 0.00 | 0.33 | 0.00 | 90 | 1009.0 |
| 20260507101833 | 2 | 314 | 0.0 | 0.0 | 0.00 | 0.33 | 0.00 | 90 | 1009.0 |
| 20260507101317 | 3 | 314 | 0.0 | 0.0 | 0.00 | 0.36 | 0.00 | 90 | 1008.9 |
| 20260507100807 | 3 | 314 | 0.0 | 0.0 | 0.00 | 0.38 | 0.00 | 89 | 1008.9 |
| 20260507100256 | 3 | 314 | 0.0 | 0.0 | 0.00 | 0.43 | 0.00 | 89 | 1008.9 |
| 20260507095751 | 3 | 313 | 0.0 | 0.0 | 0.00 | 0.48 | 0.00 | 89 | 1009.0 |
| 20260507095246 | 3 | 314 | 0.0 | 0.0 | 0.00 | 0.51 | 0.00 | 89 | 1009.0 |
| 20260507093738 | 3 | 314 | 0.0 | 0.0 | 0.00 | 0.64 | 0.00 | 89 | 1008.9 |
| 20260507093221 | 3 | 314 | 0.0 | 0.0 | 0.00 | 0.64 | 0.00 | 89 | 1008.9 |
| 20260507092716 | 3 | 314 | 0.0 | 0.0 | 0.00 | 0.64 | 0.00 | 89 | 1009.0 |
| 20260507092212 | 3 | 314 | 0.0 | 0.0 | 0.00 | 0.64 | 0.00 | 88 | 1009.0 |
| 20260507091706 | 3 | 314 | 0.0 | 0.0 | 0.00 | 0.66 | 0.00 | 88 | 1009.1 |
| 20260507091146 | 4 | 313 | 0.0 | 0.0 | 0.00 | 0.69 | 0.00 | 88 | 1009.4 |
| 20260507090645 | 4 | 314 | 0.0 | 0.0 | 0.00 | 0.69 | 0.00 | 87 | 1009.4 |
| 20260507085622 | 4 | 314 | 0.0 | 0.0 | 0.00 | 0.76 | 0.00 | 87 | 1009.3 |
| 20260507085120 | 4 | 313 | 0.0 | 0.0 | 0.00 | 0.79 | 0.00 | 86 | 1009.3 |
| 20260507084613 | 5 | 314 | 0.0 | 0.0 | 0.00 | 0.84 | 0.00 | 86 | 1009.4 |
| 20260507084110 | 5 | 314 | 0.0 | 0.0 | 0.00 | 0.86 | 0.00 | 85 | 1009.4 |
| 20260507083602 | 5 | 313 | 0.0 | 0.0 | 0.00 | 0.89 | 0.00 | 84 | 1009.4 |
| 20260507082600 | 5 | 314 | 0.0 | 0.0 | 0.00 | 0.91 | 0.00 | 83 | 1009.4 |
| 20260507081552 | 5 | 314 | 0.0 | 0.0 | 0.00 | 0.94 | 0.00 | 83 | 1009.4 |
| 20260507081021 | 5 | 314 | 0.0 | 0.0 | 0.00 | 0.97 | 0.00 | 82 | 1009.4 |
| 20260507080518 | 5 | 314 | 0.0 | 0.0 | 0.00 | 1.02 | 0.00 | 81 | 1009.4 |
| 20260507075406 | 6 | 314 | 0.0 | 0.0 | 0.00 | 1.07 | 0.00 | 80 | 1009.4 |
| 20260507074855 | 6 | 313 | 0.0 | 0.0 | 0.00 | 1.07 | 0.00 | 80 | 1009.4 |
| 20260507074336 | 6 | 314 | 0.0 | 0.0 | 0.00 | 1.07 | 0.00 | 80 | 1009.5 |
| 20260507073835 | 6 | 314 | 0.0 | 0.0 | 0.00 | 1.07 | 0.00 | 79 | 1009.5 |
| 20260507073335 | 6 | 314 | 0.0 | 0.0 | 0.00 | 1.07 | 0.00 | 79 | 1009.5 |
| 20260507072834 | 6 | 314 | 0.0 | 0.0 | 0.00 | 1.07 | 0.00 | 78 | 1009.6 |
| 20260507072331 | 6 | 314 | 0.0 | 0.0 | 0.00 | 1.07 | 0.00 | 77 | 1009.6 |
| 20260507071812 | 7 | 314 | 0.0 | 0.0 | 0.00 | 1.07 | 0.00 | 77 | 1009.6 |
| 20260507071257 | 7 | 314 | 0.0 | 0.0 | 0.00 | 1.07 | 0.00 | 77 | 1009.5 |
| 20260507070749 | 7 | 314 | 0.0 | 0.0 | 0.00 | 1.07 | 0.00 | 77 | 1009.5 |
| 20260507070221 | 7 | 313 | 0.0 | 0.0 | 0.00 | 1.09 | 0.00 | 76 | 1009.5 |
| 20260507065201 | 7 | 314 | 0.0 | 0.0 | 0.00 | 1.09 | 0.00 | 76 | 1009.7 |
| 20260507064136 | 8 | 314 | 0.0 | 0.0 | 0.00 | 1.14 | 0.00 | 76 | 1009.7 |
| 20260507063634 | 8 | 314 | 0.0 | 0.0 | 0.00 | 1.14 | 0.00 | 76 | 1009.7 |
| 20260507063057 | 8 | 314 | 0.0 | 0.0 | 0.00 | 1.17 | 0.00 | 76 | 1009.8 |
| 20260507062522 | 8 | 314 | 0.0 | 0.0 | 0.00 | 1.17 | 0.00 | 75 | 1009.7 |
| 20260507062014 | 8 | 314 | 0.0 | 0.0 | 0.00 | 1.19 | 0.00 | 75 | 1009.7 |
| 20260507061509 | 8 | 314 | 0.0 | 0.0 | 0.00 | 1.19 | 0.00 | 74 | 1009.7 |
| 20260507061007 | 8 | 314 | 0.0 | 0.0 | 0.00 | 1.19 | 0.00 | 75 | 1009.9 |
| 20260507060449 | 8 | 314 | 0.0 | 0.0 | 0.00 | 1.22 | 0.00 | 75 | 1009.9 |
| 20260507055943 | 8 | 314 | 0.0 | 0.0 | 0.00 | 1.22 | 0.00 | 75 | 1010.1 |
| 20260507055406 | 8 | 314 | 0.0 | 0.0 | 0.00 | 1.24 | 0.00 | 75 | 1010.1 |
| 20260507054824 | 8 | 314 | 0.0 | 0.0 | 0.00 | 1.24 | 0.00 | 75 | 1010.1 |
| 20260507054321 | 8 | 314 | 0.0 | 0.0 | 0.00 | 1.24 | 0.00 | 75 | 1010.3 |
| 20260507053824 | 8 | 314 | 0.0 | 0.0 | 0.00 | 1.24 | 0.00 | 76 | 1010.3 |
| 20260507052734 | 8 | 314 | 0.0 | 4.8 | 0.00 | 1.24 | 0.00 | 76 | 1010.3 |
| 20260507052239 | 9 | 314 | 0.0 | 4.8 | 0.00 | 1.24 | 0.00 | 76 | 1010.3 |
| 20260507051717 | 9 | 314 | 0.0 | 1.6 | 0.00 | 1.27 | 0.00 | 76 | 1010.3 |
| 20260507051214 | 9 | 314 | 0.0 | 0.0 | 0.00 | 1.27 | 0.00 | 76 | 1010.3 |
| 20260507050155 | 9 | 314 | 0.0 | 0.0 | 0.00 | 1.30 | 0.00 | 76 | 1010.3 |
| 20260507045628 | 9 | 314 | 0.0 | 0.0 | 0.00 | 1.30 | 0.00 | 76 | 1010.5 |
| 20260507045126 | 9 | 314 | 0.0 | 0.0 | 0.00 | 1.30 | 0.00 | 76 | 1010.5 |
| 20260507044623 | 9 | 314 | 0.0 | 0.0 | 0.00 | 1.30 | 0.00 | 76 | 1010.5 |
| 20260507044111 | 9 | 314 | 0.0 | 0.0 | 0.00 | 1.30 | 0.00 | 76 | 1010.4 |
| 20260507043553 | 9 | 314 | 0.0 | 0.0 | 0.00 | 1.30 | 0.00 | 76 | 1010.4 |
| 20260507043039 | 9 | 314 | 0.0 | 0.0 | 0.00 | 1.32 | 0.00 | 76 | 1010.4 |
| 20260507042533 | 9 | 314 | 0.0 | 0.0 | 0.00 | 1.32 | 0.00 | 76 | 1010.3 |
| 20260507040443 | 10 | 314 | 0.0 | 0.0 | 0.00 | 1.32 | 0.00 | 75 | 1010.3 |
| 20260507035910 | 10 | 314 | 0.0 | 0.0 | 0.00 | 1.32 | 1.32 | 75 | 1010.1 |
| 20260507034855 | 10 | 314 | 0.0 | 0.0 | 0.00 | 1.32 | 1.32 | 74 | 1010.1 |
| 20260507033837 | 10 | 314 | 0.0 | 0.0 | 0.00 | 1.32 | 1.32 | 74 | 1010.3 |
| 20260507033329 | 10 | 314 | 0.0 | 0.0 | 0.00 | 1.32 | 1.32 | 74 | 1010.4 |
| 20260507032807 | 10 | 314 | 0.0 | 0.0 | 0.00 | 1.32 | 1.32 | 74 | 1010.0 |
| 20260507031232 | 10 | 314 | 0.0 | 0.0 | 0.00 | 1.32 | 1.32 | 73 | 1009.7 |
| 20260507030716 | 10 | 314 | 0.0 | 0.0 | 0.00 | 1.32 | 1.32 | 72 | 1009.7 |
| 20260507030214 | 10 | 314 | 0.0 | 0.0 | 0.00 | 1.32 | 1.32 | 71 | 1009.7 |
| 20260507025709 | 10 | 314 | 0.0 | 0.0 | 0.00 | 1.32 | 1.32 | 71 | 1009.8 |
| 20260507025155 | 10 | 314 | 0.0 | 3.2 | 0.00 | 1.32 | 1.32 | 70 | 1009.8 |
| 20260507024643 | 10 | 314 | 0.0 | 3.2 | 0.00 | 1.32 | 1.32 | 69 | 1009.8 |
| 20260507024134 | 10 | 314 | 0.0 | 0.0 | 0.00 | 1.32 | 1.32 | 68 | 1009.8 |